Regional Weather Roundup
Issued by NWS

Home | Current Version | Previous Version | Graphics & Text | Print | Product List | Glossary On
Versions: 1 2 3 4 5 6 7 8 9 10 11 12 13 14 15 16 17 18 19 20 21 22 23 24 25 26 27 28 29 30 31 32 33 34 35 36 37 38 39 40 41 42 43 44 45 46 47 48 49 50
000
ASUS43 KMPX 010810
RWRMN
WEATHER ROUNDUP FOR MINNESOTA
NATIONAL WEATHER SERVICE TWIN CITIES/CHANHASSEN MN
300 AM CDT WED APR 01 2015


NOTE: "FAIR" INDICATES FEW OR NO CLOUDS BELOW 12,000 FEET WITH NO
SIGNIFICANT WEATHER AND/OR OBSTRUCTIONS TO VISIBILITY. N/A MEANS
CURRENT SKY AND/OR WEATHER CONDITIONS ARE NOT AVAILABLE.

MNZ060>063-068>070-010900-
   Twin Cities Metro

CITY           SKY/WX    TMP DP  RH WIND       PRES   REMARKS
TWIN CITIES    FAIR      45  31  58 SE8       29.84F
ST PAUL        CLEAR     44  30  57 SE8       29.85F
CRYSTAL        CLEAR     49  29  46 E7        29.82F
BLAINE         CLEAR     50  27  40 E9        29.83F
LAKEVILLE      CLEAR     37  32  81 SE5       29.85S
EDEN PRAIRIE   CLEAR     48  31  51 SE10      29.82F
SOUTH ST PAUL  CLEAR     46  30  55 SE5       29.85F
LAKE ELMO      FAIR      46  28  49 SE7       29.86F
$$
MNZ001>005-007-008-013>017-022>024-027-028-010900-
   Northwest Minnesota

CITY           SKY/WX    TMP DP  RH WIND       PRES   REMARKS
BEMIDJI        PTCLDY    41  27  57 SE10      29.76F
HALLOCK        PTCLDY    45  28  53 SE18G26   29.66F
ROSEAU         MOCLDY    41  28  60 SE12      29.73F
WARROAD        MOCLDY    36  30  80 E7        29.76F
THIEF RVR FALL PTCLDY    39  28  65 E14       29.69F
CROOKSTON      PTCLDY    45  30  57 SE13      29.67F
FOSSTON        PTCLDY    43  28  56 SE10      29.70F
DETROIT LAKES  PTCLDY    48  30  49 SE16G22   29.70F
MOORHEAD       PTCLDY    48  30  49 SE9       29.63F
PARK RAPIDS    PTCLDY    45  25  45 E8        29.75F
MAHNOMEN       FAIR      47  28  47 SE14      29.68F
$$
MNZ006-009>011-018-025>026-010900-
   North Central Minnesota

CITY           SKY/WX    TMP DP  RH WIND       PRES   REMARKS
BAUDETTE       MOCLDY    35  28  75 E8        29.77F WCI  29
FLAG ISLAND    MOCLDY    37  30  75 SE6       29.77S
INTL FALLS     CLOUDY    34  29  82 SE8       29.82F WCI  27
WASKISH        PTCLDY    37  27  65 CALM      29.78F
BIG FORK       PTCLDY    39  28  65 SE8       29.84S
LONGVILLE      PTCLDY    41  28  60 E5        29.81F
GRAND RAPIDS   PTCLDY    37  28  70 SE9       29.85S
CRANE LAKE     MOCLDY    34  28  80 SE5       29.88F WCI  30
ORR            MOCLDY    34  27  75 SE9       29.83F WCI  26
COOK           MOCLDY    32  28  86 E7        29.88R WCI  26
WALKER         FAIR      40  27  58 SE5       29.78F
$$
MNZ012-019>021-037-010900-
   Northeast Minnesota

CITY           SKY/WX    TMP DP  RH WIND       PRES   REMARKS
DULUTH         CLOUDY    31  29  92 E12       29.91S WCI  22
ELY            CLOUDY    30  28  93 SE7       29.90R WCI  23
HIBBING        MOCLDY    32  28  85 SE7       29.88S WCI  26
EVELETH        CLOUDY    32  32 100 SE3       29.90S
DULUTH HARBOR  CLOUDY    34  30  86 NE16      29.96S WCI  23
TWO HARBORS    CLOUDY    34  28  80 E7        29.93S WCI  28
SILVER BAY     CLOUDY    30  30 100 NE7       29.94S WCI  23
GRAND MARAIS     N/A     31  27  85 NE6       29.99F WCI  25
G MARAIS ARPRT FOG       25  21  86 SE5       29.93F VSB 1/4 WCI  19
$$
MNZ029>031-032-039>041-046>048-054>057-064-010900-
   West Central Minnesota

CITY           SKY/WX    TMP DP  RH WIND       PRES   REMARKS
FERGUS FALLS   PTCLDY    52  25  35 SE20G25   29.67F
WHEATON        MOCLDY    45  34  65 SE18      29.66F
MORRIS         MOCLDY    46  34  61 SE20      29.68F
ALEXANDRIA     PTCLDY    47  30  51 SE16      29.73F
ELBOW LAKE     FAIR      49  31  49 SE17      29.67F
WADENA         PTCLDY    41  28  60 SE10      29.74F
GLENWOOD       CLEAR     45  32  61 SE13      29.74F
APPLETON       MOCLDY    48  34  57 SE12      29.69F
BENSON         PTCLDY    48  32  53 S14G23    29.71F
ORTONVILLE     CLOUDY    46  34  61 SE14      29.66F
MADISON        MOCLDY    48  30  49 S12       29.68F
WILLMAR        FAIR      48  34  57 SE17      29.76F
$$
MNZ033>034-036-042>043-049>051-058-059-010900-
   Central Minnesota

CITY           SKY/WX    TMP DP  RH WIND       PRES   REMARKS
ST CLOUD       PTCLDY    48  26  42 SE8       29.80F
SAUK CENTRE    FAIR      45  31  58 E9        29.76F
PAYNESVILLE    CLEAR     45  31  59 E12       29.77F
AITKIN         PTCLDY    41  30  65 E7        29.82F
PINE RIVER     PTCLDY    41  28  60 E9        29.83F
BRAINERD       PTCLDY    43  26  51 SE7       29.81F
STAPLES        PTCLDY    46  25  42 SE9       29.76F
LONG PRAIRIE   FAIR      45  30  57 E8        29.77F
LITTLE FALLS   PTCLDY    45  27  49 SE7       29.79F
LITCHFIELD     CLEAR     48  34  57 CALM      29.79F
BUFFALO        CLEAR     48  28  46 SE7       29.82F
MAPLE LAKE     CLEAR     44  32  62 SE5       29.81F
$$
MNZ037-044-045-052-053-010900-
   East Central Minnesota

CITY           SKY/WX    TMP DP  RH WIND       PRES   REMARKS
PRINCETON      CLEAR     45  27  49 E3        29.83F
MORA           PTCLDY    37  27  65 E5        29.87S
CAMBRIDGE      CLEAR     48  30  49 SE7       29.83S
RUSH CITY      PTCLDY    42  27  55 E3        29.86S
MOOSE LAKE     PTCLDY    32  32 100 CALM      29.88S
HINCKLEY       FAIR      39  32  75 E7        29.88S
CLOQUET        CLOUDY    30  30 100 E8        29.90S FOG     WCI  23
MCGREGOR       PTCLDY    36  32  87 E9        29.86F
$$
MNZ071>073-080-081-089-090-097-098-010900-
   Southwest Minnesota

CITY           SKY/WX    TMP DP  RH WIND       PRES   REMARKS
MONTEVIDEO     MOCLDY    50  34  53 S10       29.71F
GRANITE FALLS  MOCLDY    49  33  53 SE13      29.73F
CANBY          PTCLDY    56  31  38 S14G21    29.68F
MARSHALL       PTCLDY    52  30  43 S10       29.71F
REDWOOD FALLS  FAIR      46  34  62 SE12      29.75F
OLIVIA         PTCLDY    46  36  66 SE10      29.74F
PIPESTONE      PTCLDY    52  30  43 S10       29.73F
WINDOM         CLEAR     48  34  57 CALM      29.77F
WORTHINGTON    PTCLDY    54  28  37 S16G22    29.77F
JACKSON        CLEAR     52  30  43 S10       29.79F
TRACY          PTCLDY    54  32  43 S14G20    29.72F
SLAYTON        PTCLDY    56  25  29 S17       29.75F
$$
MNZ065>067-074>077-082>085-091>093-010900-
   South Central Minnesota

CITY           SKY/WX    TMP DP  RH WIND       PRES   REMARKS
MANKATO        CLEAR     46  34  61 SE15      29.82F
NEW ULM        CLEAR     48  34  57 SE13      29.78F
ST JAMES       CLEAR     43  34  70 SE12      29.79F
FAIRMONT       CLEAR     43  28  56 S9        29.79F
GLENCOE        CLEAR     47  37  66 SE9       29.80F
FARIBAULT      CLEAR     48  34  57 SE8       29.85F
OWATONNA       CLEAR     46  34  61 SE9       29.85F
WASECA         CLEAR     45  34  65 SE10      29.85F
ALBERT LEA     CLEAR     48  36  61 SE10      29.85F
$$
MNZ078>079-086>088-094>096-010900-
   Southeast Minnesota

CITY           SKY/WX    TMP DP  RH WIND       PRES   REMARKS
ROCHESTER      CLEAR     39  31  72 S9        29.89S
RED WING       FAIR      39  30  70 E3        29.87F
STANTON        CLEAR     48  32  55 S8        29.84F
DODGE CENTER   PTCLDY    41  36  81 SE8       29.87F
WINONA         CLEAR     37  34  87 CALM      29.92S
AUSTIN         CLEAR     45  36  70 SE7       29.87S
PRESTON        CLEAR     43  32  65 S5        29.90S
$$
ABBREVIATIONS USED IN REMARKS
   TC - TEMPERATURES IN CELSIUS
  WCI - WIND CHILL INDEX
   HX - HEAT INDEX
  VSB - VISIBILITY
$$


USA.gov is the U.S. government's official web portal to all federal, state and local government web resources and services.